Home   Weather   Medicine Hat   Past weeks

Flag for Canada Past Weather in Medicine Hat, Alberta, Canada — Yesterday and Last 2 Weeks

Now
23 °F

Overcast.


Feels Like: 11 °F
Forecast: 3 / 18 °F
Wind: 13 mph from Northwest

Location: Medicine Hat

Current Time: Dec 4, 2016 at 9:47:10 pm

Latest Report: Dec 4, 2016 at 9:00 pm


Visibility: 9 mi

Pressure: 29.81 "Hg (27.40 "Hg at 661m altitude)

Humidity: 68%

Dew Point: 14 °F

Location of Medicine HatLocation

Past Weather in Medicine Hat — Graph

°F

Medicine Hat Temperature Yesterday

Maximum temperature yesterday: 43 °F (at 2:00 pm)
Minimum temperature yesterday: 23 °F (at 7:00 pm)
Average temperature yesterday: 33 °F

High & Low Weather Summary for the Past Weeks

 TemperatureHumidityPressure
High55 °F (Nov 21, 1:00 pm)100% (Nov 22, 1:52 am)30.22 "Hg (Nov 22, 1:52 am)
Low14 °F (Dec 1, 10:00 pm)26% (Nov 26, 2:00 pm)29.39 "Hg (Nov 27, 3:00 pm)
Average31 °F76%29.88 "Hg
* Reported Nov 19 8:00 pm — Dec 4 8:00 pm, Medicine Hat, Weather by CustomWeather, © 2016

Note: Actual official high and low records may vary slightly from our data, if they occured in-between our weather recording intervals... More about our weather records

Advertising

Medicine Hat Weather History for the Previous 24 Hours

Scroll right to see more
 ConditionsComfort  
Time TempWeatherWind HumidityBarometerVisibility
8:00 pm
Sun, Dec 4
27 °FOvercast.18 mph59%29.78 "Hg15 mi
7:00 pm27 °FOvercast.10 mph69%29.76 "Hg15 mi
6:54 pm27 °FOvercast.12 mph69%29.76 "Hg10 mi
6:00 pm25 °FLight snow. Mostly cloudy.17 mph93%29.75 "Hg1 mi
5:46 pm25 °FLight snow. Overcast.20 mph93%29.75 "Hg1 mi
5:00 pm27 °FLight snow. Overcast.20 mph86%29.73 "Hg1 mi
4:00 pm28 °FLight snow. Overcast.20 mph74%29.67 "Hg1 mi
3:54 pm28 °FLight snow. Overcast.16 mph74%29.66 "Hg1 mi
3:00 pm28 °FLight snow. Ice fog.9 mph93%29.64 "Hg1 mi
2:52 pm28 °FLight snow. Ice fog.7 mph93%29.64 "Hg1 mi
2:00 pm30 °FSnow flurries. Overcast.7 mph80%29.61 "Hg1 mi
1:00 pm32 °FMostly cloudy.8 mph75%29.61 "Hg30 mi
12:00 pm30 °FCloudy.6 mph80%29.64 "Hg30 mi
11:00 am28 °FBroken clouds.7 mph80%29.66 "Hg30 mi
10:00 am27 °FPartly sunny.6 mph80%29.67 "Hg30 mi
9:00 am25 °FPartly sunny.7 mph86%29.67 "Hg30 mi
8:00 am25 °FPassing clouds.3 mph80%29.69 "Hg30 mi
7:00 am23 °FPassing clouds.6 mph86%29.72 "Hg30 mi
6:00 am23 °FClear.6 mph86%29.74 "Hg30 mi
5:00 am18 °FClear.5 mph93%29.77 "Hg9 mi
4:00 am23 °FClear.8 mph80%29.78 "Hg9 mi
3:00 am25 °FClear.9 mph80%29.80 "Hg9 mi
2:00 am25 °FOvercast.8 mph80%29.81 "Hg9 mi
1:00 am25 °FPassing clouds.7 mph80%29.82 "Hg9 mi
12:00 am25 °FClear.6 mph80%29.83 "Hg9 mi
11:00 pm
Sat, Dec 3
25 °FPassing clouds.10 mph80%29.85 "Hg9 mi
10:00 pm25 °FPassing clouds.6 mph80%29.86 "Hg9 mi
9:00 pm25 °FClear.7 mph80%29.87 "Hg9 mi
Weather by CustomWeather, © 2016

See weather overviewHow to use our weather pages